JCSAT-110A (JCSAT-15)

Last updated on Fri Oct 04 2024 00:02:41 GMT+0000 (Coordinated Universal Time)

1 41903U 16082A 24276.89216084 -.00000348 00000+0 00000+0 0 9997 2 41903 0.0015 174.9741 0000573 47.0327 221.3465 1.00272266 28511
UTC large
Height (km)
Speed (km/s)
/
Latitude / Longitude
Inclination (degrees)
Orbital Period (minutes)
Azimuth
Elevation
Range (km)
Doppler Factor

Next 0 passes for location: London (51.5072 / 0.1276)

Sorry there are no passes over London.